User: anonymous   Login
Location: Unspecified
(0.0000°N, 0.0000°E)
Time: 15:04:55
(UTC+02:00)
Language:

Landsat 4 - Orbit

View from above orbital plane
View from above orbital plane
View from above satellite
View from above satellite

Ground track
Ground track

The orbit data is extracted from the following two-line orbital elements,

1 13367U 82072A   15143.22141528  .00002480  00000-0  14359-3 0  9997
2 13367 098.1797 235.6258 0012945 248.1112 169.5074 15.13244399770584
Epoch (UTC): 23 May 2015 05:18:50
Eccentricity: 0.0012945
inclination: 98.1797°
perigee height: 517 km
apogee height: 535 km
right ascension of ascending node: 235.6258°
argument of perigee: 248.1112°
revolutions per day: 15.13244399
mean anomaly at epoch: 169.5074°
orbit number at epoch: 77058

The dashed part of the orbit path shows where the satellite is in the earth's shadow,  

DLR